Location: Dehesa de la Cepeda
(40.6574°N, 4.3013°W)
Time: 20:21:23
(UTC+00:00)

Vanguard 2 Rocket - Pass Details

Date: 07 August 2021
Orbit: 556 x 3324 km, 32.9° (Epoch: 19 September)

Event Time Altitude Azimuth Distance (km) Brightness Sun altitude
Rises 08:41:37 0° 260° (W) 2,920 9.1 36.7°
Reaches altitude 10° 08:44:20 10° 246° (WSW) 1,879 8.2 37.2°
Maximum altitude 08:47:38 24° 190° (S) 1,159 7.7 37.8°
Drops below altitude 10° 08:50:58 10° 134° (SE) 1,898 9.5 38.4°
Sets 08:53:43 0° 121° (ESE) 2,957 10.4 38.9°
